698  
ASUS42 KTAE 282110  
RWRTAE  
RWRTAE  
NORTH FLORIDA/SOUTH ALABAMA/SOUTHWEST GEORGIA WEATHER ROUNDUP  
NATIONAL WEATHER SERVICE TALLAHASSEE FLORIDA  
400 PM EST MON NOV 28 2022  
 
NOTE: "FAIR" INDICATES FEW OR NO CLOUDS BELOW 12,000 FEET WITH NO  
SIGNIFICANT WEATHER AND/OR S TO VISIBILITY
.  
 
!FLZ017-115-028-034-025-282200   
..NORTH FLORIDA
 
 
 
CITY SKY/WX TMP DP RH WIND PRES REMARKS
 
TALL INTL ARPT MOSUNNY 77 59 53 NW9 29.99S  
FSU LOVE BLDG N/A 77 57 50 W10 N/A  
APALACHICOLA SUNNY 74 63 68 SW10 30.00S  
PERRY NOT AVBL  
CROSS CITY PTSUNNY 73 57 57 W7 30.02S  
JACKSONVILLE PTSUNNY 75 55 49 W12 29.98R  

 
 
!FLZ112-006-005-002-011-282200   
..FLORIDA PANHANDLE
 
 
 
CITY SKY/WX TMP DP RH WIND PRES REMARKS
 
MARIANNA SUNNY 75 54 47 W10 29.98S  
BONIFAY NOT AVBL  
PANAMA CITY NW FAIR 75 60 59 SW10 29.98S  
TYNDALL AFB MOSUNNY 73 60 63 W8 30.00S  
TYND DRONE APT FAIR 76 64 65 W5 29.97S  
DE FUNIAK SPR FAIR 74 52 45 CALM 30.00R  
EGLIN AFB SUNNY 73 62 68 S13 29.95S  
DESTIN SUNNY 75 62 64 VRB6 29.99R  
HURLBURT SUNNY 71 62 71 SW10 29.98S  
CRESTVIEW SUNNY 75 53 46 W5 30.00S  
PENSACOLA MOSUNNY 73 61 65 S12 29.98S  

 
 
!ALZ063-066-282200   
..SOUTH ALABAMA
 
 
 
CITY SKY/WX TMP DP RH WIND PRES REMARKS
 
DOTHAN SUNNY 72 52 49 W5 30.02F  
OZARK CAIRNS SUNNY 72 48 42 W8 29.98S  
FT RUCKER HELI SUNNY 72 50 44 NW5 29.98F  
RUCKER HELI 3 FAIR 71 50 47 N6 29.97F  
RUCKER HELI 2 FAIR 71 52 49 CALM 29.96F  
FLORALA APT SUNNY 75 49 39 VRB3 30.00S  
ANDALUSIA SUNNY 75 50 41 N6 29.99S  
TROY SUNNY 72 48 42 VRB5 30.00S  
EUFALA FAIR 72 49 44 VRB3 30.00S  
MOBILE MOSUNNY 74 50 42 CALM 29.99R  

 
 
!GAZ120>161-282200   
..SOUTHWEST AND SOUTH CENTRAL GEORGIA
 
 
 
CITY SKY/WX TMP DP RH WIND PRES REMARKS
 
THOMASVILLE FAIR 72 55 56 W8 30.01S  
BAINBRIDGE SUNNY 74 52 45 W12 30.00S  
MOODY AFB MOSUNNY 74 55 51 W14 29.98S  
VALDOSTA MOSUNNY 75 58 55 VRB3 29.99S  
MOULTRIE MOSUNNY 72 54 53 W14 30.00S  
BLAKELY SUNNY 70 46 43 NW3 30.00R  
ALBANY SUNNY 73 48 41 NW7 30.00S  
TIFTON NOT AVBL  
FITZGERALD FAIR 72 51 47 W10 30.00S  
CORDELE FAIR 70 47 43 W12 30.01R  
AMERICUS FAIR 69 48 47 W8 29.99R  
HOMERVILLE FAIR 73 55 53 W6 29.99S  

 
 
!GMZ750-755-770-775-282200   
..COASTAL AND BUOY OBS
 
 
 
STATION/POSITION TIME TEMP WIND PRES VSBY WAVE
 
AIR SEA DIR/SP/G HT/PER  
(UTC) (F) (DEG/KT/KT) (MB) (MI) (FT/S)  
KEATON BEACH 2100 69 180/ 8/ 9 1016.6F  
CEDAR KEY 2000 70 250/ 4/ 6 1017.4S  
C TOWER 2100 72 1016.5F  
APALACHICOLA BUO 2050 74 75 80/ 4/ 4 1015.3F 3/ 8  
PANAMA CITY BUOY 2050 74 100/ 4/ 6 1016.8F 2/ 7  
MOBILE BUOY 2050 73 74 50/ 4/ 4 1016.0F 2/ 6  
ORANGE BCH AL BU 2050 69 70 270/ 4/ 4 1015.6R 1/ 6  

 
 
 
CLICK HERE TO GO TO PREVIOUS BULLETINS.

The Nexlab FL Page
The Nexlab GA Page
The Nexlab AL Page Main Text Page